Flag for France Weather past 2 weeks in Rouen, France

Now
64 °F

Clear.


Feels Like: 64 °F
Forecast: 56 / 66 °F
Wind: 9 mph from West

Location: Rouen Airport

Current Time: Aug 29, 2014 at 8:32:39 PM

Latest Report: Aug 29, 2014 at 8:00 PM


Visibility: N/A

Pressure: 30.07 "Hg

Humidity: 68%

Dew point: 54 °F

Location of RouenLocation

Historic Weather in Rouen — Graph

°F

Rouen temperature yesterday

Maximum temperature yesterday: 68 °F (at 2:30 PM)
Minimum temperature yesterday: 61 °F (at 1:30 AM)
Average temperature yesterday: 64 °F

Past Weeks' High & Low Weather Summary

 TemperatureHumidityPressure
High72 °F (Aug 26, 2:00 PM)100% (Aug 15, 2:30 AM)30.21 "Hg (Aug 15, 2:30 AM)
Low43 °F (Aug 21, 5:30 AM)43% (Aug 18, 5:00 PM)29.65 "Hg (Aug 25, 9:30 PM)
Average58 °F81%29.98 "Hg
* Reported Aug 14 7:00 PM — Aug 29 7:30 PM, Rouen, Weather by CustomWeather, © 2014

Note: Actual official high and low records may vary slightly from our data, if they occured in-between our weather recording intervals... More about our weather records

Advertising

Rouen weather history for previous 24 hours

 ConditionsComfort  
Time TempWeatherWind HumidityBarometerVisibility
7:30 PM
Aug 29
64 °FPartly sunny.9 mph68%30.07 "HgN/A
7:00 PM66 °FBroken clouds.9 mph68%30.07 "HgN/A
6:30 PM68 °FPartly sunny.8 mph64%30.07 "HgN/A
6:00 PM68 °FPartly sunny.9 mph60%30.04 "HgN/A
5:30 PM68 °FBroken clouds.12 mph64%30.04 "HgN/A
5:00 PM70 °FBroken clouds.12 mph57%30.04 "HgN/A
4:30 PM70 °FPartly sunny.13 mph57%30.04 "HgN/A
4:00 PM70 °FPartly sunny.13 mph57%30.07 "HgN/A
3:30 PM72 °FPartly sunny.12 mph53%30.07 "HgN/A
3:00 PM68 °FBroken clouds.10 mph60%30.07 "HgN/A
2:30 PM68 °FPartly sunny.12 mph60%30.07 "HgN/A
2:00 PM66 °FClear.12 mph68%30.07 "HgN/A
1:30 PM68 °FPassing clouds.12 mph64%30.07 "HgN/A
1:00 PM66 °FPassing clouds.10 mph64%30.07 "HgN/A
12:30 PM64 °FPassing clouds.12 mph68%30.07 "HgN/A
12:00 PM64 °FPassing clouds.10 mph73%30.07 "HgN/A
11:30 AM64 °FMostly cloudy.7 mph73%30.07 "HgN/A
11:00 AM63 °FBroken clouds.9 mph77%30.07 "HgN/A
10:30 AM63 °FPartly sunny.8 mph83%30.04 "HgN/A
10:00 AM64 °FMostly cloudy.7 mph83%30.04 "HgN/A
9:30 AM63 °FPartly sunny.7 mph88%30.04 "HgN/A
9:00 AM61 °FScattered clouds.6 mph94%30.04 "HgN/A
8:30 AM59 °FMostly cloudy.6 mph94%30.04 "HgN/A
8:00 AM57 °FMostly cloudy.3 mph94%30.04 "HgN/A
7:30 AM57 °FOvercast.3 mph94%30.04 "HgN/A
7:00 AM57 °FOvercast.5 mph94%30.01 "HgN/A
6:30 AM57 °FOvercast.3 mph94%30.01 "HgN/A
6:00 AM57 °FOvercast.3 mph94%30.01 "HgN/A
5:30 AM57 °FLight rain. Overcast.3 mph94%30.01 "HgN/A
5:00 AM59 °FOvercast.3 mph94%30.01 "HgN/A
4:30 AM59 °FMostly cloudy.3 mph94%30.01 "HgN/A
4:00 AM59 °FMostly cloudy.3 mph94%30.01 "HgN/A
3:30 AM59 °FPassing clouds.3 mph94%30.01 "HgN/A
3:00 AM59 °FPassing clouds.3 mph94%30.01 "HgN/A
2:30 AM59 °FLight rain. Fog.6 mph94%30.01 "Hg1 mi
2:00 AM61 °FMostly cloudy.7 mph94%30.01 "HgN/A
1:30 AM61 °FFog.3 mph94%30.01 "Hg2 mi
1:00 AM61 °FFog.3 mph94%30.01 "Hg2 mi
12:30 AM61 °FFog.3 mph94%30.01 "Hg3 mi
12:00 AM61 °FPartly cloudy.6 mph94%30.01 "Hg4 mi
11:30 PM
Aug 28
63 °FPartly cloudy.6 mph88%30.01 "HgN/A
11:00 PM63 °FPartly cloudy.12 mph88%30.01 "HgN/A
10:30 PM63 °FMostly cloudy.6 mph83%29.98 "HgN/A
10:00 PM63 °FMostly cloudy.6 mph83%29.98 "HgN/A
9:30 PM63 °FPartly sunny.6 mph83%29.98 "HgN/A
9:00 PM63 °FFog.3 mph83%29.98 "Hg1 mi
8:30 PM64 °FBroken clouds.3 mph78%29.98 "HgN/A
8:00 PM66 °FPartly sunny.3 mph78%29.98 "HgN/A
Weather by CustomWeather, © 2014

See weather overviewHow to use our weather pages